Location: Bonneuil
(46.1010°N, 2.9693°E)
Time: 02:19:47
(UTC+00:00)

Cosmos 1758 Rocket - Pass Details

Date: 09 April 2020
Orbit: 603 x 635 km, 82.5° (Epoch: 05 June)

Event Time Altitude Azimuth Distance (km) Brightness Sun altitude
Rises 19:17:55 0° 346° (NNW) 2,878 7.5 -9.1°
Reaches altitude 10° 19:20:11 10° 342° (NNW) 1,965 6.7 -9.5°
Maximum altitude 19:24:25 55° 266° (W) 732 4.3 -10.2°
Drops below altitude 10° 19:28:36 10° 188° (S) 1,943 6.0 -10.8°
Sets 19:30:50 0° 184° (S) 2,841 6.8 -11.2°
